Cloud_Cover
0 4 0 0 12 4 57 5 5 9 55 100 82 5 96 100 100 100 100 22 2 18 9 2 0 0 85 8 27 100 100 100
4 0 0 0 3 19 21 41 59 67 33 100 99 100 100 100 100 100 100 41 12 0 0 16 0 0 18 2 62 100 100 100
16 2 0 0 3 3 18 71 100 87 50 100 100 100 100 100 78 72 0 0 0 0 0 0 3 72 100 57 7 97 100 99
0 72 8 0 0 0 60 100 100 99 100 100 100 100 100 99 100 18 0 3 0 0 0 80 100 100 100 97 98 17 64 74
0 7 100 88 0 6 100 100 100 100 100 100 100 100 100 82 100 100 92 14 10 0 0 0 4 100 100 99 22 90 96 97
0 10 100 24 0 16 82 100 100 98 100 95 100 100 97 88 100 100 100 100 93 0 0 0 50 45 13 7 100 4 5 21
0 33 100 86 27 22 100 100 47 71 16 99 100 95 74 100 100 100 100 100 100 49 90 98 97 19 5 14 0 0 0 12
0 5 100 100 1 0 17 97 97 100 100 44 100 100 99 100 100 100 100 100 100 96 88 100 99 50 5 2 0 0 0 0
0 8 100 100 100 100 100 7 9 93 60 49 13 100 80 100 100 100 100 100 100 100 97 100 100 56 5 1 0 0 0 0
2 0 42 54 73 86 33 100 92 19 97 80 100 98 100 100 100 100 100 100 100 100 100 99 53 4 5 2 5 32 100 88
100 40 0 10 0 79 12 60 64 10 0 5 100 100 100 100 100 100 100 100 100 100 99 100 67 81 5 5 5 5 88 100
100 17 0 35 75 100 97 36 4 0 10 10 66 100 100 100 100 100 100 100 100 100 100 100 100 43 33 41 58 11 37 21
100 100 84 6 79 31 20 63 22 1 100 100 100 42 100 100 44 100 100 100 100 100 100 100 100 100 100 9 73 2 4 1
72 100 29 2 4 64 39 33 96 66 50 18 100 86 28 100 96 100 100 100 100 100 100 100 100 100 100 21 5 2 4 9
98 98 56 66 100 100 99 12 2 99 95 100 100 94 100 100 100 83 78 100 100 100 100 100 100 100 97 11 17 76 12 11
100 72 98 100 100 100 100 100 57 100 100 100 99 97 94 100 96 86 60 96 60 100 75 100 52 19 5 6 0 3 39 55
100 57 100 96 100 100 100 100 100 100 100 100 72 100 93 75 8 44 2 40 40 4 5 10 0 2 3 1 1 5 5 10
92 23 3 97 100 100 100 100 100 100 100 100 100 100 100 22 100 98 10 2 39 6 78 100 100 77 30 2 0 0 0 3
100 48 5 6 10 21 77 100 100 58 100 64 5 41 100 100 98 98 91 30 4 0 0 0 4 7 98 100 94 100 100 100